Probability
0 0 0 0 0 0 0 0 0 0 0 0 0 0 0 0 0 0 0 0 0 0 0 0 0 0 0 0 0 0 0 0 0 0 0 0 0 0 0 0 0 0 0
0 0 0 0 0 0 0 0 0 0 0 0 0 0 0 0 0 0 0 0 0 0 0 0 0 0 0 0 0 0 0 0 0 0 0 0 0 0 0 0 0 0 0
0 0 0 0 0 0 0 0 0 0 0 0 0 0 0 0 0 0 0 0 0 0 0 0 0 0 0 0 0 0 0 0 0 0 0 0 0 0 0 0 0 0 0
0 0 0 0 0 0 0 0 0 0 0 0 0 0 0 0 0 0 0 0 0 0 0 0 0 0 0 0 0 0 0 0 0 0 0 0 0 0 0 0 0 0 0
0 0 0 0 0 0 0 0 0 0 0 0 0 0 0 0 0 0 0 0 0 0 0 0 0 0 0 0 0 0 0 0 0 0 0 0 0 0 0 0 0 0 0
0 0 0 0 0 0 0 0 0 0 0 0 0 0 0 0 0 0 0 0 0 0 0 0 0 0 0 0 0 0 0 0 0 0 0 0 0 0 0 0 0 0 0
0 0 0 0 0 0 0 0 0 0 0 0 0 0 0 0 0 0 0 0 0 0 0 0 0 0 0 0 0 0 0 0 0 0 0 0 0 0 0 0 0 0 0
0 0 0 0 0 0 0 0 0 0 0 0 0 0 0 0 0 0 0 0 0 0 0 0 0 0 0 0 0 0 0 0 0 0 0 0 0 0 0 0 0 0 0
0 0 0 0 0 0 0 0 0 0 0 0 0 0 0 0 0 0 0 0 0 0 0 0 0 0 0 0 0 0 0 0 0 0 0 0 0 0 0 0 0 0 0
0 0 0 0 0 0 0 0 0 0 0 0 0 0 0 0 0 0 0 0 0 0 0 0 0 0 0 0 0 0 0 0 0 0 0 0 0 0 0 0 0 0 0
0 0 0 0 0 0 0 0 0 0 0 0 0 0 0 0 0 0 0 0 0 0 0 0 0 0 0 0 0 0 0 0 0 0 0 0 0 0 0 0 0 0 0
0 0 0 0 0 0 0 0 0 0 0 0 0 0 0 0 0 0 0 0 0 0 0 0 0 0 0 0 0 0 0 0 0 0 0 0 0 0 0 0 0 0 0
0 0 0 0 0 0 0 0 0 0 0 0 0 0 0 0 0 0 0 0 0 0 0 0 0 0 0 0 0 0 0 0 0 0 0 0 0 0 0 0 0 0 0
0 0 0 0 0 0 0 0 0 0 0 0 0 0 0 0 0 0 0 0 0 0 0 0 0 0 0 0 0 0 0 0 0 0 0 0 0 0 0 0 0 0 0
0 0 0 0 0 0 0 0 0 0 0 0 0 0 0 0 0 0 0 0 0 0 0 0 0 0 0 0 0 0 0 0 0 0 0 0 0 0 0 0 0 0 0
0 0 0 0 0 0 0 0 0 0 0 0 0 0 0 0 0 0 0 0 0 0 0 0 0 0 0 0 0 0 0 0 0 0 0 0 0 0 0 0 0 0 0
0 0 0 0 0 0 0 0 0 0 0 0 0 0 0 0 0 0 0 0 0 0 0 0 0 0 0 0 0 0 0 0 0 0 0 0 0 0 0 0 0 0 0
0 0 0 0 0 0 0 0 0 0 0 0 0 0 0 0 0 0 0 0 0 0 0 0 0 0 0 0 0 0 0 0 0 0 0 0 0 0 0 0 0 0 0
0 0 0 0 0 0 0 0 0 0 0 0 0 0 0 0 0 0 0 0 0 0 0 0 0 0 0 0 0 0 0 0 0 0 0 0 0 0 0 0 0 0 0
0 0 0 0 0 0 0 0 0 0 0 0 0 0 0 0 0 0 0 0 0 0 0 0 0 0 0 0 0 0 0 0 0 0 0 0 0 0 0 0 0 0 0
0 0 0 0 0 0 0 0 0 0 0 0 0 0 0 0 0 0 0 0 0 0 0 0 0 0 0 0 0 0 0 0 0 0 0 0 0 0 0 0 0 0 0
0 0 0 0 0 0 0 0 0 0 0 0 0 0 0 0 0 0 0 0 0 0 0 0 0 0 0 0 0 0 0 0 0 0 0 0 0 0 0 0 0 0 0
0 0 0 0 0 0 0 0 0 0 0 0 0 0 0 0 0 0 0 0 0 0 0 0 0 0 0 0 0 0 0 0 0 0 0 0 0 0 0 0 0 0 0
0 0 0 0 0 0 0 0 0 0 0 0 0 0 0 0 0 0 0 0 0 0 0 0 0 0 0 0 0 0 0 0 0 0 0 0 0 0 0 0 0 0 0
0 0 0 0 0 0 0 0 0 0 0 0 0 0 0 0 0 0 0 0 0 0 0 0 0 0 0 0 0 0 0 0 0 0 0 0 0 0 0 0 0 0 0
0 0 0 0 0 0 0 0 0 0 0 0 0 0 0 0 0 0 0 0 0 0 0 0 0 0 0 0 0 0 0 0 0 0 0 0 0 0 0 0 0 0 0
Wind_Speed
7 4 1 5 7 8 10 13 14 12 10 8 8 9 10 8 7 8 10 12 12 12 12 9 8 8 9 10 10 7 7 6 3 2 5 5 8 11 10 9 8 9 10
10 8 3 3 6 8 10 11 13 12 12 12 9 6 6 5 6 6 9 11 12 12 12 12 9 10 9 9 10 9 6 5 6 5 2 5 5 7 11 10 10 11 8
7 7 5 1 2 6 9 10 12 12 12 10 5 2 2 1 3 6 7 9 12 12 13 13 12 11 11 11 12 11 11 9 7 7 6 5 8 4 4 7 9 8 8
5 5 4 2 1 4 5 6 7 9 9 8 7 9 9 11 10 8 7 8 11 13 14 13 13 13 12 13 12 12 11 10 9 6 8 7 4 3 5 3 4 7 9
4 4 4 3 3 2 1 3 4 6 7 8 10 10 12 12 7 5 7 9 9 12 14 14 13 14 13 14 13 12 13 12 12 9 6 9 8 6 5 8 4 3 5
4 4 5 5 4 4 3 0 2 4 5 8 9 10 13 12 9 9 9 8 8 9 13 13 14 14 13 14 15 14 15 14 14 12 10 8 7 8 10 14 10 7 5
2 3 5 5 5 5 4 2 1 3 4 6 8 10 12 12 13 12 10 10 8 9 11 13 14 14 15 14 13 14 16 16 15 16 14 13 12 6 6 10 9 7 5
1 1 2 2 3 4 3 2 2 3 3 5 7 8 9 8 9 11 10 10 10 10 10 13 14 16 15 15 14 14 16 14 17 18 17 13 12 10 10 8 7 7 6
2 2 2 2 2 3 3 3 3 4 4 5 6 6 7 8 10 10 9 9 10 9 10 12 14 15 15 16 15 14 16 15 16 17 17 15 12 11 11 9 9 9 11
2 2 2 3 3 3 3 3 3 4 4 4 5 5 6 7 8 8 9 10 11 10 10 11 12 13 14 15 15 15 15 16 16 14 15 16 12 11 10 11 10 11 13
3 3 3 3 3 3 4 4 4 4 4 5 5 5 6 6 6 7 9 9 9 9 10 11 12 12 13 13 14 16 14 17 17 15 16 18 15 12 11 10 11 12 12
3 3 3 3 4 4 4 4 4 4 5 5 4 5 6 6 6 8 9 8 9 9 10 10 11 12 12 12 14 16 16 17 18 17 17 18 14 16 13 12 13 13 13
3 3 3 4 4 5 5 5 5 5 5 5 5 6 6 7 8 9 9 8 9 9 9 9 11 11 12 12 13 15 15 16 17 16 17 17 16 17 14 14 14 12 12
2 2 3 4 5 6 6 6 6 6 5 5 6 7 8 8 9 9 9 9 9 9 10 10 11 11 11 11 12 13 14 15 15 15 16 16 17 17 16 15 15 13 13
3 4 4 5 6 6 6 6 6 6 5 6 7 8 8 8 9 9 9 9 9 10 10 11 11 11 10 10 11 11 13 13 14 14 15 16 20 23 19 14 11 12 12
5 6 6 7 7 7 7 6 7 7 6 7 8 9 9 9 9 10 10 10 10 10 10 11 12 12 10 18 23 18 11 12 13 14 14 14 19 24 30 31 27 21 15
6 7 7 7 7 7 6 6 7 7 7 8 9 9 10 10 10 11 10 10 11 10 11 11 11 13 15 23 25 25 15 11 12 13 12 11 13 20 14 21 29 28 31
7 7 7 7 6 6 6 6 7 7 8 9 9 10 10 11 11 11 11 11 10 10 10 11 11 12 15 23 24 25 16 11 11 12 12 12 12 13 14 12 13 14 15
7 7 6 6 6 6 6 7 8 8 9 10 10 10 10 11 12 12 12 11 10 10 10 10 11 12 14 22 24 24 10 9 10 10 11 12 12 19 25 15 13 13 13
7 7 6 5 6 7 6 7 9 9 10 11 11 11 11 11 13 13 12 11 10 11 11 11 11 12 13 19 23 23 8 9 9 8 9 18 17 20 23 15 12 15 12
8 6 5 5 7 7 7 9 10 11 12 12 12 11 11 11 13 12 11 11 11 11 11 12 11 11 13 17 22 23 10 8 8 8 7 8 19 22 23 20 13 17 13
7 6 6 7 7 7 8 11 12 12 12 11 12 12 12 11 11 12 12 11 11 12 11 11 11 8 10 14 16 21 20 17 10 8 6 8 19 21 22 18 18 23 20
7 6 7 9 9 8 8 12 14 13 13 12 12 12 12 11 10 11 12 11 10 10 10 10 10 10 7 9 18 21 21 21 11 7 13 15 19 19 15 19 21 18 11
7 7 8 10 12 10 9 11 13 13 12 14 13 12 12 12 11 9 9 9 10 10 10 10 10 10 8 7 7 7 9 13 11 8 11 16 17 14 13 13 11 8 8
7 7 8 11 14 13 12 11 11 12 13 13 12 12 11 11 11 10 9 11 10 12 13 11 10 11 11 12 19 13 7 6 8 7 5 5 5 5 6 6 6 6 6
9 9 10 12 14 14 14 12 11 11 13 12 11 10 10 10 10 11 12 15 17 22 24 22 19 14 18 24 23 22 20 18 15 10 5 5 5 6 6 6 6 6 6
Wind_Direction
328 336 187 173 178 186 191 195 198 197 184 183 192 199 210 207 208 210 207 205 205 202 205 214 204 201 211 215 211 211 216 223 182 227 278 270 243 240 238 232 231 230 225
8 12 42 137 180 194 198 199 201 197 196 202 200 199 202 205 207 211 213 209 209 207 209 214 211 206 214 217 211 205 212 215 183 185 215 291 293 244 235 226 226 229 222
16 10 18 75 189 206 206 206 205 202 202 198 180 173 169 246 213 216 219 214 212 212 216 215 214 211 211 220 217 209 210 220 207 192 179 205 245 294 266 235 229 223 218
20 17 13 2 271 236 217 215 208 205 202 189 187 193 206 222 223 219 219 214 212 216 217 219 216 216 217 222 219 214 213 213 220 212 219 221 192 221 292 275 241 227 224
28 20 3 342 335 326 249 219 208 209 200 197 202 207 223 234 235 223 225 224 220 220 220 219 219 221 222 224 221 216 213 215 222 214 204 225 233 225 241 272 272 259 236
27 18 8 8 3 5 8 352 210 224 209 205 211 216 228 235 239 235 233 233 230 226 224 222 223 225 226 225 223 221 219 220 222 221 212 202 207 209 215 241 249 245 238
29 16 17 12 6 4 356 349 270 254 231 217 221 225 232 235 239 241 240 240 240 236 229 224 227 229 230 229 224 223 224 223 222 223 224 223 225 206 204 229 246 245 236
320 339 347 354 348 354 355 340 300 276 258 235 236 236 237 238 245 246 243 243 245 243 235 227 230 232 231 230 226 227 227 227 227 229 227 229 228 217 214 215 221 250 249
246 265 297 316 328 340 339 322 301 289 279 258 252 252 245 242 249 253 250 252 252 251 241 234 235 235 233 232 228 230 229 228 228 230 229 230 230 223 221 216 208 224 252
244 269 290 302 316 321 324 332 310 288 285 277 263 258 256 251 253 259 260 258 258 256 252 246 242 240 238 235 232 234 233 231 231 228 229 231 230 227 221 220 218 219 237
238 267 287 306 328 339 341 335 324 309 299 289 279 277 276 272 268 264 264 264 265 262 258 255 250 246 243 239 236 237 234 234 235 231 230 232 227 227 223 220 220 223 225
260 281 308 339 345 338 329 322 311 302 291 288 287 283 282 284 280 273 271 269 268 267 263 261 257 254 249 243 239 241 238 236 237 234 232 233 227 227 224 223 224 225 222
308 326 337 338 327 317 310 304 297 290 289 291 292 293 291 287 282 279 278 276 273 272 269 264 261 259 255 249 244 243 242 238 237 234 232 233 227 229 225 223 225 224 226
324 338 327 312 303 297 294 295 294 291 294 297 296 294 291 288 285 284 283 280 278 276 274 268 264 262 259 254 250 246 245 243 241 237 234 232 227 229 225 225 224 222 224
335 321 304 293 292 294 295 296 295 298 301 303 300 294 292 290 288 287 284 282 279 276 274 273 271 266 262 258 253 249 247 246 246 242 238 234 233 232 230 228 222 218 221
307 301 296 294 292 291 293 297 297 298 304 301 295 294 295 294 291 288 286 284 281 278 276 273 273 271 268 273 275 270 250 245 244 245 241 239 244 245 244 241 234 221 218
290 290 290 285 285 287 290 295 294 299 300 295 294 296 295 294 290 288 288 285 283 280 278 274 272 271 272 279 283 281 274 250 243 240 239 239 236 241 238 245 246 240 231
289 289 286 286 288 291 297 296 299 300 298 296 294 293 292 291 290 289 287 285 283 281 280 278 274 273 275 283 286 285 279 264 248 238 235 234 234 231 231 228 232 236 239
288 284 283 285 292 299 301 304 305 303 301 297 294 293 291 291 293 291 290 288 288 286 282 280 280 279 282 286 289 288 276 266 256 242 234 234 234 238 242 234 230 234 236
297 295 297 301 305 306 309 309 304 303 299 296 293 292 290 290 291 291 290 289 287 287 287 284 280 278 278 284 291 290 276 269 264 250 237 243 243 243 245 237 228 233 230
291 294 300 300 297 300 307 303 301 297 295 295 294 292 289 288 290 290 288 290 290 289 288 286 283 278 279 287 290 291 282 264 264 257 243 237 250 250 246 240 231 235 230
298 302 302 299 297 298 301 300 300 297 297 295 294 293 291 290 294 291 291 290 290 291 291 291 290 281 279 284 289 291 289 283 267 258 246 240 250 251 249 246 239 238 239
296 296 295 298 299 295 291 294 298 300 299 298 296 295 294 291 290 290 293 294 292 291 292 291 291 290 280 279 289 293 293 291 282 261 258 256 255 253 251 250 246 241 233
296 296 301 304 306 304 294 287 294 298 299 299 299 297 298 297 293 288 288 290 291 290 290 290 291 291 289 281 275 272 281 284 284 278 269 267 264 254 243 244 248 235 223
297 297 297 299 301 303 301 297 296 299 300 299 297 298 295 296 297 292 289 289 280 282 290 289 289 294 295 291 294 293 274 261 258 262 250 243 240 235 230 225 224 222 219
300 300 297 296 300 303 303 302 301 300 300 302 301 299 298 298 296 298 297 291 289 294 295 294 293 291 290 297 300 301 299 292 284 277 255 245 235 230 224 217 212 211 211